Find Kosmos-1556

NORAD ID: 14979 Int'l Des: 1984-047 Owner: GUKOS Country: SU operational
MEOCIRCULAR

リアルタイム位置

3D地球を読み込み中...

Kosmos-1556について

説明を読み込み中...

次回通過

Passes for default location (London). Set your location on the main map for personalized predictions.

高度履歴

Loading altitude history...

軌道要素

1 14979U 84047C 26122.59424203 -.00000056 00000-0 00000+0 0 9996
2 14979 66.4378 331.2470 0010195 198.0218 336.4659 2.12912533326129
Epoch: May 2, 2026 • Age: 106 hours

現在のステータス

高度 19170.3 km
速度 3.95 km/s
衛星直下点 -49.18°S, 79.3°E
打ち上げ日 May 19, 1984
運用期間 41.9 years
タイプ other

技術仕様

分類 Payload
質量 1300.00 kg
乾燥質量 1200.00 kg
総質量 1300.00 kg
長さ 4.00 m
直径 1.50 m
スパン 7.80 m
形状 Cyl + Ant + 2 Pan
製造者 OAZ
バスタイプ Uragan
フェーズステータス In Orbit
所有者/国 GUKOS/SU

Most Searched